[Iaude] MPEC K135: 2020 KK3 [a=2.17,e=0.57,i=6.7,H=25.4]

mpec at marsden.cfa.harvard.edu mpec at marsden.cfa.harvard.edu
Fri May 22 21:29:09 EDT 2020


M.P.E.C. 2020-K135                                 Issued 2020 May 23, 01:27 UT

     The Minor Planet Electronic Circulars contain information on unusual
         minor planets and routine data on comets.  They are published
    on behalf of Division F of the International Astronomical Union by the
          Minor Planet Center, Smithsonian Astrophysical Observatory,
                          Cambridge, MA 02138, U.S.A.

             Prepared using the Tamkin Foundation Computer Network

                              MPC at CFA.HARVARD.EDU
            URL https://www.minorplanetcenter.net/    ISSN 1523-6714

                                    2020 KK3                                    


Observations:
     K20K03K* C2020 05 19.39327415 42 43.271-19 07 21.62         21.58wUEK135F51
     K20K03K  C2020 05 19.40463015 42 43.457-19 07 58.56         21.79wUEK135F51
     K20K03K  C2020 05 19.41599015 42 43.663-19 08 35.22         21.76wUEK135F51
     K20K03K  C2020 05 20.23811 15 43 21.67 -19 54 51.0                VEK135V06
     K20K03K  C2020 05 20.24049 15 43 21.75 -19 54 59.2                VEK135V06
     K20K03K  C2020 05 20.24286 15 43 21.78 -19 55 07.3          21.2 GVEK135V06
     K20K03K ^C2020 05 20.35961415 43 27.661-20 01 49.84         21.26GVEK135568
     K20K03K ^C2020 05 20.36057015 43 27.683-20 01 53.35         21.28GVEK135568
     K20K03K ^C2020 05 20.36152115 43 27.706-20 01 56.70         21.25GVEK135568
     K20K03K ^C2020 05 20.36247815 43 27.726-20 02 00.18         21.26GVEK135568
     K20K03K bC2020 05 20.98673315 43 56.37 -20 40 34.3          21.3 GVEK135L01
     K20K03K bC2020 05 20.99342315 43 56.48 -20 40 58.4          21.4 GVEK135L01
     K20K03K  C2020 05 22.25158 15 45 09.21 -22 06 18.4          21.8 GVEK135I52
     K20K03K  C2020 05 22.26107 15 45 09.53 -22 06 59.8          20.7 GVEK135I52
     K20K03K  C2020 05 22.26700 15 45 09.75 -22 07 25.7          21.0 GVEK135I52

Observer details:
568 Mauna Kea.  Observers R. Wainscoat, C. Crowder, T. Burdullis.  Measurers
    R. Weryk, R. Wainscoat.  3.6-m Canada-France-Hawaii Telescope + CCD.
F51 Pan-STARRS 1, Haleakala.  Observers J. Bulger, T. Lowe, A. Schultz, M.
    Willman.  Measurers K. Chambers, S. Chastel, T. de Boer, L. Denneau, J.
    Fairlamb, H. Flewelling, M. Huber, C.-C. Lin, E. Magnier, Y. Ramanjooloo,
    R. Wainscoat, R. Weryk.  1.8-m Ritchey-Chretien + CCD.
I52 Steward Observatory, Mt. Lemmon Station.  Observer T. A. Pruyne.
    Measurers E. J. Christensen, G. A. Farneth, D. C. Fuls, A. R. Gibbs, A. D.
    Grauer, H. Groeller, R. A. Kowalski, S. M. Larson, G. J. Leonard, T. A.
    Pruyne, D. Rankin, R. L. Seaman, F. C. Shelly, K. W. Wierzchos.  1.0-m
    reflector + CCD.
L01 Visnjan Observatory, Tican.  Observers K. Korlevic, G. Kervina.  Measurer
    K. Korlevic.  1.0-m f/2.9 reflector + CCD.
V06 Catalina Sky Survey-Kuiper.  Observer T. A. Pruyne.  Measurers E. J.
    Christensen, G. A. Farneth, D. C. Fuls, A. R. Gibbs, A. D. Grauer, H.
    Groeller, R. A. Kowalski, S. M. Larson, G. J. Leonard, T. A. Pruyne, D.
    Rankin, R. L. Seaman, F. C. Shelly, K. W. Wierzchos.  1.55-m reflector +
    CCD.

Orbital elements:
2020 KK3                                                 Earth MOID = 0.0431 AU
Epoch 2020 May 31.0 TT = JDT 2459000.5                  Veres
M 347.67917              (2000.0)            P               Q
n   0.30758735     Peri.  239.82948     +0.47870547     +0.87218951
a   2.1734871      Node    59.10599     -0.75981049     +0.46897721
e   0.5664956      Incl.    6.73451     -0.43991941     +0.13908932
P   3.20           H   25.4           G   0.15           U   8
Residuals in seconds of arc
200519 F51  0.1+  0.1+    200520 V06  0.0   0.1+    200520 L01  0.4+  0.1-
200519 F51  0.1-  0.0     200520 568  0.1-  0.1-    200520 L01  0.9-  1.1+
200519 F51  0.1+  0.1+    200520 568  0.1-  0.2-    200522 I52  0.1+  0.4-
200520 V06  0.1+  0.5-    200520 568  0.1-  0.1-    200522 I52  0.0   0.0
200520 V06  0.4+  0.3-    200520 568  0.1-  0.1-    200522 I52  0.2+  0.2+

Ephemeris:
2020 KK3                 a,e,i = 2.17, 0.57, 7                   q = 0.9422
Date    TT    R. A. (2000) Decl.     Delta      r    Elong.  Phase     V
2020 04 23    15 31 46.0 -09 55 46   0.3668  1.3529   158.2    16.1    24.7
...
2020 05 08    15 37 24.9 -12 50 00   0.2301  1.2366   170.1     8.0    23.2
...
2020 05 16    15 40 40.2 -16 32 01   0.1668  1.1777   176.7     2.8    22.2
...
2020 05 22    15 44 52.8 -21 47 15   0.1235  1.1357   177.1     2.6    21.4
2020 05 23    15 45 56.0 -23 02 00   0.1166  1.1289   175.9     3.6    21.3
2020 05 24    15 47 09.1 -24 25 50   0.1099  1.1222   174.7     4.8    21.3
...
2020 05 30    16 01 22.7 -37 50 21   0.07291 1.0837   162.9    16.0    20.8
...
2020 06 07    20 44 01.8 -78 18 27   0.04513 1.0375   118.9    58.9    20.9
...
2020 06 22    03 05 15.6 -22 32 26   0.1085  0.9722    63.1   111.1    24.8

M. P. C. Staff               (C) Copyright 2020 MPC           M.P.E.C. 2020-K135




More information about the Iaude mailing list